Home   Weather   Gran   Past weeks

Flag for Norway Past Weather in Gran, Norway — Yesterday and Last 2 Weeks

Now
48 °F

Sunny.


Feels Like: 43 °F
Forecast: 29 / 42 °F
Wind: 14 mph from Southwest

Location: Oslo Gardermoen Airport

Current Time: Apr 30, 2017 at 8:52:17 pm

Latest Report: Apr 30, 2017 at 8:20 pm


Visibility: 10 mi

Pressure: 30.09 "Hg

Humidity: 43%

Dew Point: 27 °F

Location of GranLocation

Past Weather in Gran — Graph

°F

Gran Temperature Yesterday

Maximum temperature yesterday: 50 °F (at 5:20 pm)
Minimum temperature yesterday: 30 °F (at 4:50 am)
Average temperature yesterday: 40 °F

High & Low Weather Summary for the Past Weeks

 TemperatureHumidityPressure
High54 °F (Apr 30, 3:20 pm)100% (Apr 24, 1:20 pm)30.51 "Hg (Apr 24, 1:20 pm)
Low23 °F (Apr 16, 3:20 am)18% (Apr 22, 3:20 pm)29.24 "Hg (Apr 24, 4:50 pm)
Average37 °F56%29.91 "Hg
* Reported Apr 15 7:20 pm — Apr 30 7:20 pm, Gran, Weather by CustomWeather, © 2017

Note: Actual official high and low records may vary slightly from our data, if they occured in-between our weather recording intervals... More about our weather records

Advertising

Gran Weather History for the Previous 24 Hours

Scroll right to see more
 ConditionsComfort  
Time TempWeatherWind HumidityBarometerVisibility
7:20 pm
Sun, Apr 30
52 °FSunny.13 mph35%30.07 "Hg10 mi
6:50 pm52 °FPassing clouds.14 mph35%30.07 "HgN/A
6:20 pm52 °FSunny.10 mph32%30.07 "Hg10 mi
5:50 pm52 °FPassing clouds.9 mph30%30.07 "HgN/A
5:20 pm54 °FPassing clouds.7 mph26%30.07 "HgN/A
4:50 pm54 °FPassing clouds.10 mph24%30.07 "HgN/A
4:20 pm52 °FSunny.13 mph26%30.09 "Hg10 mi
3:50 pm52 °FPassing clouds.12 mph28%30.09 "HgN/A
3:20 pm54 °FPassing clouds.9 mph26%30.09 "HgN/A
2:50 pm52 °FPassing clouds.7 mph28%30.09 "HgN/A
2:20 pm50 °FPassing clouds.10 mph28%30.09 "HgN/A
1:50 pm50 °FSunny.9 mph28%30.09 "Hg10 mi
1:20 pm50 °FPassing clouds.7 mph28%30.09 "HgN/A
12:50 pm50 °FPassing clouds.9 mph28%30.09 "HgN/A
12:20 pm50 °FPassing clouds.9 mph28%30.12 "HgN/A
11:50 am50 °FSunny.7 mph30%30.12 "Hg10 mi
11:20 am48 °FPassing clouds.8 mph34%30.12 "HgN/A
10:50 am46 °FSunny.3 mph37%30.12 "Hg10 mi
10:20 am45 °FPassing clouds.5 mph39%30.15 "HgN/A
9:50 am43 °FPassing clouds.3 mph46%30.15 "HgN/A
9:20 am43 °FSunny.2 mph42%30.15 "Hg10 mi
8:50 am41 °FSunny.No wind45%30.15 "Hg10 mi
8:20 am37 °FSunny.2 mph52%30.15 "Hg10 mi
7:50 am34 °FSunny.3 mph65%30.15 "Hg10 mi
7:20 am32 °FSunny.No wind69%30.15 "Hg10 mi
6:50 am30 °FSunny.2 mph75%30.18 "Hg10 mi
6:20 am28 °FSunny.No wind74%30.18 "Hg10 mi
5:50 am28 °FSunny.No wind74%30.18 "Hg10 mi
5:20 am27 °FSunny.3 mph80%30.18 "Hg10 mi
4:50 am27 °FClear.3 mph80%30.18 "Hg10 mi
4:20 am28 °FClear.2 mph74%30.18 "Hg10 mi
3:50 am28 °FPassing clouds.3 mph80%30.18 "HgN/A
3:20 am28 °FClear.3 mph80%30.18 "Hg10 mi
2:50 am28 °FClear.3 mph80%30.18 "Hg10 mi
2:20 am30 °FPassing clouds.3 mph75%30.18 "HgN/A
1:50 am30 °FClear.2 mph75%30.18 "Hg10 mi
1:20 am32 °FClear.3 mph75%30.18 "Hg10 mi
12:50 am34 °FClear.2 mph65%30.18 "Hg10 mi
12:20 am34 °FClear.3 mph60%30.18 "Hg10 mi
11:50 pm
Sat, Apr 29
34 °FClear.2 mph60%30.18 "Hg10 mi
11:20 pm36 °FPassing clouds.3 mph56%30.18 "HgN/A
10:50 pm37 °FClear.No wind56%30.15 "Hg10 mi
10:20 pm39 °FClear.5 mph48%30.15 "Hg10 mi
9:20 pm43 °FClear.2 mph39%30.15 "Hg10 mi
8:50 pm46 °FSunny.2 mph32%30.15 "Hg10 mi
8:20 pm48 °FSunny.6 mph27%30.15 "Hg10 mi
Weather by CustomWeather, © 2017

See weather overviewHow to use our weather pages